CAPE
1213 1179 1348 1350 1471 1008 789 701 710 670 713 770 794 552 311 95 16 7 3 0 0 0
1176 1222 1020 981 879 829 686 555 752 596 473 167 3 3 1 3 0 0 0 0 0 0
685 630 733 711 511 619 521 429 129 15 3 2 1 0 0 0 0 0 0 0 0 0
550 521 497 276 122 42 60 27 2 1 0 0 0 0 0 0 0 0 0 0 0 0
102 4 0 0 3 5 14 11 6 3 1 0 0 0 0 0 0 0 3 20 28 7
74 9 5 2 0 11 10 6 5 7 0 6 0 14 14 22 23 19 10 3 0 0
3 3 2 0 0 0 0 0 0 0 0 4 14 18 11 11 10 11 9 1 0 0
3 4 3 6 3 1 2 1 0 0 0 0 0 0 0 0 0 2 9 9 1 0
5 6 9 15 6 0 0 0 0 0 0 0 0 0 0 0 0 0 1 1 15 2
1 0 0 0 0 0 0 0 0 0 0 0 0 0 0 0 0 0 3 5 1 0
0 0 0 0 0 0 0 0 0 0 0 0 0 0 0 0 0 0 0 0 3 0
30 33 20 25 24 3 0 0 0 0 0 0 0 0 0 0 3 2 0 0 0 0
4 21 22 19 16 2 0 0 0 0 0 0 0 0 0 0 11 3 7 1 0 0
24 33 29 25 19 0 0 0 0 0 0 0 0 0 0 0 0 0 14 9 6 0
CIN
-194 -164 -115 -101 -59 -107 -76 -65 -59 -49 -20 -9 0 0 -7 -43 -1 -3 0 0 0 0
-172 -119 -150 -87 -87 -73 -57 -70 -19 -34 -36 -110 0 0 0 0 0 0 0 0 0 0
-189 -187 -109 -67 -100 -48 -44 -57 -156 -303 0 0 0 0 0 0 0 0 0 0 0 0
-154 -128 -94 -159 -221 -278 -216 -102 0 0 0 0 0 0 0 0 0 0 0 0 0 0
-299 -19 -14 0 -1 -11 -264 -4 0 0 -1 0 0 0 0 0 -1 -6 -13 -8 -4 -5
-212 -219 0 -1 0 -2 0 -1 -1 -1 -1 -1 0 -1 -1 -2 -1 -2 -5 -7 -2 0
-15 -2 -1 0 0 0 0 0 -1 0 -1 -2 -1 -1 -2 -1 0 -1 -5 -1 0 0
-2 -3 -2 -1 -1 -1 -2 0 0 0 0 0 0 0 -1 0 -1 -1 -2 -1 -1 0
-2 -1 0 -1 -1 0 0 0 0 0 0 0 0 0 0 0 0 0 0 -1 -2 -7
-3 0 0 0 0 0 0 0 0 0 0 0 0 0 0 0 0 -1 -2 -2 -1 0
0 0 0 0 0 0 0 0 0 0 0 0 0 0 0 0 0 0 0 0 -1 0
-1 -3 -5 -2 -1 -1 -1 0 0 0 0 0 0 0 0 0 -1 -2 0 0 0 0
-18 -5 -5 -2 -2 -1 0 0 0 0 0 0 0 0 0 0 -2 -6 -5 -6 0 0
-8 -2 -2 -1 -1 0 0 0 0 0 0 0 0 0 0 0 0 0 -4 -3 -2 0
Wind_Speed
18 17 20 19 21 22 22 23 24 24 25 26 25 23 24 25 26 25 24 22 21 22
21 20 20 21 21 21 21 23 23 24 24 24 24 23 22 22 22 22 22 22 21 21
22 22 21 21 21 21 21 22 21 21 22 21 22 22 22 21 21 21 22 21 21 22
23 22 22 21 20 20 20 20 20 20 20 21 21 22 21 21 21 22 21 22 21 22
22 21 20 20 19 19 19 19 19 19 20 20 21 21 21 21 21 21 21 22 23 23
21 20 19 19 19 19 19 19 20 20 20 21 22 21 22 22 23 24 24 26 26 27
21 20 19 18 18 18 18 19 19 20 21 21 22 23 23 23 23 24 24 25 26 26
21 20 19 19 18 19 19 20 20 21 22 23 23 24 23 24 24 24 23 23 23 26
18 18 18 19 19 19 19 20 21 22 22 23 23 25 25 24 24 24 24 24 24 25
19 18 18 18 19 20 20 20 21 22 22 22 23 24 25 24 24 24 24 25 25 26
17 17 17 17 18 19 20 20 20 20 20 21 22 24 25 24 23 24 25 26 25 26
16 15 15 16 18 19 19 19 20 20 20 21 22 23 24 24 22 22 22 24 26 27
17 15 16 17 19 19 19 19 19 19 20 20 21 23 24 24 22 23 21 20 23 28
16 17 17 17 18 18 18 18 18 18 18 19 20 22 24 24 24 23 24 25 25 27
Wind_Direction
341 342 339 337 333 339 345 342 341 341 339 337 340 342 339 337 340 348 352 356 353 351
349 347 343 338 344 347 346 346 348 347 345 348 349 352 353 357 3 11 14 16 16 357
350 349 344 346 346 349 351 354 356 0 360 4 7 9 13 16 15 13 10 7 5 360
349 351 351 351 353 359 2 9 12 14 17 16 16 14 15 15 12 11 9 6 4 357
3 3 6 7 8 9 14 20 18 15 14 12 10 11 10 9 7 3 360 357 353 351
9 10 10 9 6 11 12 12 11 11 8 6 4 4 1 2 359 359 357 353 351 347
15 17 20 20 18 17 15 14 13 10 7 5 3 1 359 359 359 357 358 354 353 354
14 15 17 18 19 16 13 12 10 8 6 6 4 358 358 1 358 358 358 1 2 0
21 24 23 23 20 17 15 13 13 7 6 5 5 3 2 2 1 359 357 356 2 8
19 22 24 28 26 21 15 12 8 9 11 12 13 4 1 5 7 5 7 8 5 6
29 29 25 22 15 16 13 12 10 13 15 15 11 5 0 360 17 21 17 12 12 12
19 19 25 20 21 18 17 18 22 25 22 19 11 357 352 353 18 21 26 21 20 15
18 22 18 10 11 18 22 29 31 28 31 24 16 360 346 342 4 21 27 45 36 22
26 13 10 11 13 16 22 27 22 23 22 17 8 10 1 352 359 356 354 6 8 11